Location: Newark
(25.4800°N, 85.7200°E)
Time: 05:31:38
(UTC+00:00)

Transit 4A - Pass Details

Date: 30 August 2019
Orbit: 865 x 980 km, 66.8° (Epoch: 14 September)

Event Time Altitude Azimuth Distance (km) Brightness Sun altitude
Rises 21:15:56 0° 318° (NW) 3,556 - -34.7°
Reaches altitude 10° 21:19:00 10° 304° (WNW) 2,590 - -34.1°
Maximum altitude 21:23:29 22° 255° (WSW) 1,834 - -33.3°
Drops below altitude 10° 21:27:53 10° 206° (SSW) 2,528 - -32.4°
Sets 21:30:52 0° 191° (S) 3,450 - -31.8°
